Regional Weather Roundup
Issued by NWS Charleston, WV

Home | Current Version | Previous Version | Graphics & Text | Print | Product List | Glossary On
Versions: 1 2 3 4 5 6 7 8 9 10 11 12 13 14 15 16 17 18 19 20 21 22 23 24 25 26 27 28 29 30 31 32 33 34 35 36 37 38 39 40 41 42 43 44 45 46 47 48 49 50
000
ASUS41 KRLX 041310
RWRRLX
West Virginia Regional Weather Roundup
National Weather Service Charleston WV
900 AM EDT MON MAY 04 2015

Note: "fair" indicates few or no clouds below 12,000 feet with no
significant weather and/or obstructions to visibility.

WVZ003-041400-
Northern Panhandle of West Virginia

CITY           SKY/WX    TMP DP  RH WIND       PRES   REMARKS
WHEELING       SUNNY     63  43  48 S5        30.19S
$$

WVZ009-041400-
Northwest West Virginia

CITY           SKY/WX    TMP DP  RH WIND       PRES   REMARKS
PARKERSBURG    SUNNY     63  46  54 S5        30.23R
$$

WVZ006-041400-
Western West Virginia

CITY           SKY/WX    TMP DP  RH WIND       PRES   REMARKS
HUNTINGTON     SUNNY     60  48  64 SW7       30.22R
$$

WVZ015-041400-
West Central West Virginia

CITY           SKY/WX    TMP DP  RH WIND       PRES   REMARKS
CHARLESTON     MOSUNNY   57  46  66 CALM      30.22S
$$

WVZ022-031-041400-
North Central West Virginia

CITY           SKY/WX    TMP DP  RH WIND       PRES   REMARKS
CLARKSBURG     SUNNY     59  49  69 CALM      30.23R
MORGANTOWN     SUNNY     64  42  44 CALM      30.23R
$$

WVZ025-035-042-045-041400-
Southern West Virginia

CITY           SKY/WX    TMP DP  RH WIND       PRES   REMARKS
BECKLEY        SUNNY     65  43  44 SW5       30.29S
LOGAN            N/A     63  46  55 CALM      30.23R
BLUEFIELD      SUNNY     65  44  46 W9        30.32R
LEWISBURG      SUNNY     56  44  63 N3        30.30S
$$

WVZ047-041400-
Northern Mountains of West Virginia

CITY           SKY/WX    TMP DP  RH WIND       PRES   REMARKS
ELKINS         SUNNY     53  43  68 CALM      30.28S
$$

WVZ052-041400-
Eastern Panhandle of West Virginia

CITY           SKY/WX    TMP DP  RH WIND       PRES   REMARKS
MARTINSBURG    SUNNY     62  48  60 CALM      30.24R
PETERSBURG     SUNNY     54  45  71 CALM      30.25S
$$


USA.gov is the U.S. government's official web portal to all federal, state and local government web resources and services.